Location: Eurasberg
(48.3353°N, 11.0839°E)
Time: 08:44:07
(UTC+00:00)

Cosmos 1610 Rocket - Pass Details

Date: 18 January 2026
Orbit: 953 x 1000 km, 82.9° (Epoch: 17 February)

Event Time Altitude Azimuth Distance (km) Brightness Sun altitude
Rises 05:22:18 0° 197° (SSW) 3,615 7.4 -15.8°
Reaches altitude 10° 05:24:48 10° 201° (SSW) 2,674 6.7 -15.4°
Maximum altitude 05:30:51 63° 282° (WNW) 1,058 4.4 -14.4°
Drops below altitude 10° 05:36:59 10° 4° (N) 2,704 6.7 -13.4°
Sets 05:39:33 0° 8° (N) 3,660 7.4 -13.0°
